Regional Weather Roundup
Issued by NWS

Home | Current Version | Previous Version | Text Only | Print | Product List | Glossary On
Versions: 1 2 3 4 5 6 7 8 9 10 11 12 13 14 15 16 17 18 19 20 21 22 23 24 25 26 27 28 29 30 31 32 33 34 35 36 37 38 39 40 41 42 43 44 45 46 47 48 49 50
000
ASUS45 KABQ 221410
RWRNM
NEW MEXICO REGIONAL WEATHER ROUNDUP
NATIONAL WEATHER SERVICE ALBUQUERQUE NM
800 AM MDT SAT JUL 22 2017

NOTE: "FAIR" MEANS FEW OR NO CLOUDS BELOW 12,000 FEET AGL WITH NO
       SIGNIFICANT WEATHER OR OBSTRUCTIONS TO VISION.

      THIS PRODUCT IS RELEASED AS TWO VERSIONS.  ONE VERSION NEAR
      THE TOP OF THE HOUR CONTAINING PRELIMINARY DATA FROM ALBUQUERQUE
      AND OTHER STATIONS.  A FINAL VERSION WITH ADDITIONAL DATA IS
      ISSUED ABOUT 10 MINUTES AFTER THE HOUR.

NMZ501-503-504-510>518-221500-
NORTHWEST PLATEAU/NORTHCENTRAL MOUNTAINS

CITY           SKY/WX    TMP DP  RH WIND       PRES   REMARKS
FARMINGTON     FAIR      68  58  70 CALM      30.19R
LOS ALAMOS     FAIR      67  48  50 CALM      30.32R
SANTA FE       FAIR      69  59  70 W8        30.26R
TAOS           FAIR      63  45  51 NW3       30.33R
ANGEL FIRE     FAIR      55  47  73 CALM      30.43R

$$
NMZ402-403-502-505>509-221500-
WESTCENTRAL MOUNTAINS/SOUTHWEST MOUNTAINS

CITY           SKY/WX    TMP DP  RH WIND       PRES   REMARKS
GALLUP         FAIR      68  57  68 E3        30.25R
GRANTS         FAIR      64  53  67 N3        30.28S
SILVER CITY    CLOUDY    68  64  86 NW3       30.18S

$$
NMZ407-409-411-412-221500-
SOUTHERN DESERTS

CITY           SKY/WX    TMP DP  RH WIND       PRES   REMARKS
DEMING         PTSUNNY   71  67  87 SW5       30.12R
LAS CRUCES     FAIR      70  67  90 SE3       30.14R
HOLLOMAN AFB   FAIR      73  65  75 CALM      30.13R
ALAMOGORDO     FAIR      72  63  73 CALM      30.13R
T OR C         PTSUNNY   72  58  61 CALM      30.14R

$$
NMZ519>523-221500-
CENTRAL VALLEYS/CENTRAL HIGHLANDS

CITY           SKY/WX    TMP DP  RH WIND       PRES   REMARKS
ALBUQUERQUE    FAIR      70  58  65 S7        30.20R
DOUBLE EAGLE   MOSUNNY   61  54  77 CALM      30.21
MORIARTY ARPT  FAIR      66  58  73 CALM      30.27R
CLINES CORNERS FAIR      69  49  48 NE8G17    30.31R
BELEN          FAIR      71  58  63 S7        30.19R
SOCORRO        FAIR      71  60  66 SE5       30.16R

$$
NMZ524>526-539-540-221500-
SOUTHCENTRAL MOUNTAINS

CITY           SKY/WX    TMP DP  RH WIND       PRES   REMARKS
RUIDOSO        PTSUNNY   64  55  72 CALM      30.30R

$$
NMZ527>531-221500-
NORTHEAST HIGHLANDS/NORTHEAST PLAINS

CITY           SKY/WX    TMP DP  RH WIND       PRES   REMARKS
LAS VEGAS      FAIR      67  49  52 N6        30.31R
RATON          FAIR      72  50  45 NE5       30.25R
CLAYTON        FAIR      75  53  46 N12       30.17R

$$
NMZ532>537-221500-
EASTCENTRAL PLAINS

CITY           SKY/WX    TMP DP  RH WIND       PRES   REMARKS
SANTA ROSA     FAIR      75  56  51 N7        30.14R
TUCUMCARI      FAIR      79  55  43 N9        30.07R
CANNON AFB     FAIR      77  61  58 W6        30.13R
CLOVIS AIRPORT FAIR      78  61  55 W8        30.12R

$$
NMZ028-029-538-221500-
SOUTHEAST PLAINS

CITY           SKY/WX    TMP DP  RH WIND       PRES   REMARKS
ROSWELL        FAIR      74  55  51 N3        30.07R
ARTESIA        FAIR      81  63  54 CALM      30.07R
CARLSBAD       FAIR      74  64  71 SW3       30.04R
HOBBS          SUNNY     75  63  64 SE5       30.09R


$$




USA.gov is the U.S. government's official web portal to all federal, state and local government web resources and services.